STARLINK-11313 [DTC] (61255 NORAD) Tracking and Keplerian Element Data

This shows tracking and keplerian element data for the satellite.

Feedback or suggestion? Click here.




ElementValue
Catalog61255
NameSTARLINK-11313 [DTC]
Epoch Orbit382
Epoch Day286.91668981
Epoch Year2024
RAAN64.8773
Inclination53.1622
Eccentricity0.0001107
Argument of Perigee79.1661
Mean Anonmoly99.5105
Mean Motion15.82674739
Decay Rate2.416E-05
L11 61255U 24175N 24286.91668981 .00002416 00000+0 14605-4 0 9990
L22 61255 53.1622 64.8773 0001107 79.1661 99.5105 15.82674739 3828



Live tracking and technical data element details for STARLINK-11313 [DTC] (NORAD 61255). STARLINK-11313 [DTC] can be tracked NOW for your location showing map with azimuth and elevation plus other details from your city location.







IsCatalogInMostPopularTable: catalog: 61255, numindb: 26
Update: records affected: 1



GetName: 61255 STARLINK-11313 [DTC]

Hit Count: updated at: Wed, 04 Dec 2024 13:21:16 GMT